Weather History for Kiana, AK

Change the Weather History Date:

Saturday, January 5, 2013

  Actual Average (PASK) Record (PASK)
Temperature  
Mean Temperature 18 °F -  
Max Temperature 10 °F 0 °F 26 °F (2005)
Min Temperature 10 °F -11 °F -47 °F (1997)
Degree Days  
Heating Degree Days 47    
Moisture  
Dew Point 11 °F    
Average Humidity 75    
Maximum Humidity 84    
Minimum Humidity 62    
Precipitation  
Precipitation 0.00 in - - ()
Sea Level Pressure  
Sea Level Pressure 29.78 in    
Wind  
Wind Speed 6 mph (ENE)    
Max Wind Speed 12 mph    
Max Gust Speed 21 mph    
Visibility 10 miles    
Events      
Averages and records for this station are not official NWS values.
T = Trace of Precipitation, MM = Missing Value Source: NWS Daily Summary

Daily Weather History Graph

Daily Weather History Graph

Search for Another Location

Airport:

Trip Planner

Search our weather history database for the weather conditions in past years. The results will help you decide how hot, cold, wet, or windy it might be!

Date:

Astronomy

Jan. 05, 2013 Rise Set
Actual Time 12:24 PM AKST 3:11 PM AKST
Civil Twilight 10:40 AM AKST 4:54 PM AKST
Nautical Twilight 9:21 AM AKST 6:13 PM AKST
Astronomical Twilight 8:15 AM AKST 7:20 PM AKST
Moon 3:35 AM AKST (1/5) 12:05 PM AKST (1/5)
Length of Visible Light 6h 13m
Length of Day
2h 46m
Last Quarter, 42% of the Moon is Illuminated
Jan 5
Last Quarter
Jan 11
New
Jan 18
First Quarter
Jan 26
Full
Feb 3
Last Quarter

Hourly Weather History & Observations

Time (AKST) Temp. Windchill Dew Point Humidity Pressure Visibility Wind Dir Wind Speed Gust Speed Precip Events Conditions
12:01 AM 19.9 °F 11.1 °F 14.0 °F 78% 29.91 in 10.0 mi East 6.9 mph - N/A   Clear
1:01 AM 19.9 °F 11.1 °F 12.9 °F 74% 29.91 in 10.0 mi East 6.9 mph - N/A   Clear
2:01 AM 21.9 °F 10.4 °F 12.9 °F 68% 29.89 in 10.0 mi ESE 11.5 mph - N/A   Partly Cloudy
3:01 AM 17.1 °F 10.0 °F 10.9 °F 77% 29.89 in 10.0 mi ESE 4.6 mph - N/A   Partly Cloudy
4:01 AM 17.1 °F 8.7 °F 12.0 °F 81% 29.88 in 10.0 mi ENE 5.8 mph - N/A   Clear
5:01 AM 17.1 °F - 10.9 °F 77% 29.86 in 10.0 mi Calm Calm - N/A   Partly Cloudy
6:01 AM 23.0 °F 17.0 °F 12.9 °F 65% 29.84 in 10.0 mi Variable 4.6 mph - N/A   Scattered Clouds
7:01 AM 19.0 °F - 12.0 °F 74% 29.83 in 10.0 mi Calm Calm - N/A   Clear
8:01 AM 24.1 °F 13.1 °F 12.9 °F 62% 29.81 in 10.0 mi East 11.5 mph 20.7 mph N/A   Clear
9:01 AM 19.0 °F 13.9 °F 12.0 °F 74% 29.81 in 10.0 mi East 3.5 mph - N/A   Mostly Cloudy
10:01 AM 16.0 °F 8.8 °F 10.9 °F 81% 29.81 in 10.0 mi East 4.6 mph - N/A   Clear
11:01 AM 19.9 °F 12.1 °F 12.0 °F 71% 29.79 in 10.0 mi East 5.8 mph - N/A   Clear
12:01 PM 18.0 °F 8.7 °F 10.9 °F 74% 29.79 in 10.0 mi East 6.9 mph - N/A   Clear
1:01 PM 19.9 °F 12.1 °F 12.0 °F 71% 29.78 in 10.0 mi East 5.8 mph - N/A   Clear
2:01 PM 19.0 °F 13.9 °F 10.9 °F 71% 29.76 in 10.0 mi ESE 3.5 mph - N/A   Clear
3:01 PM 16.0 °F 8.8 °F 10.0 °F 77% 29.74 in 10.0 mi NE 4.6 mph - N/A   Clear
4:01 PM 14.0 °F 6.5 °F 9.0 °F 80% 29.73 in 10.0 mi North 4.6 mph - N/A   Clear
5:01 PM 19.0 °F - 10.9 °F 71% 29.70 in 10.0 mi Calm Calm - N/A   Clear
6:01 PM 14.0 °F 6.5 °F 9.0 °F 80% 29.69 in 10.0 mi NNE 4.6 mph - N/A   Clear
7:01 PM 12.9 °F 5.2 °F 8.1 °F 81% 29.67 in 10.0 mi NNE 4.6 mph - N/A   Clear
8:01 PM 18.0 °F 7.7 °F 10.0 °F 71% 29.65 in 10.0 mi East 8.1 mph 16.1 mph N/A   Clear
9:01 PM 17.1 °F - 10.0 °F 74% 29.65 in 10.0 mi Calm Calm - N/A   Clear
10:01 PM 12.0 °F 4.1 °F 7.0 °F 80% 29.64 in 10.0 mi NE 4.6 mph - N/A   Clear
11:01 PM 10.0 °F 0.4 °F 6.1 °F 84% 29.64 in 10.0 mi NE 5.8 mph - N/A   Clear